[[{"header":{"parameterUnit":"m.s-1","parameterCategory":1,"la1":30.2991,"la2":30.254,"lo1":-89.0895,"lo2":-89.0444,"dy":0.0017,"dx":0.0017,"nx":28,"ny":28,"refTime":"2025-04-08T03:00:00:Z","depth":0,"parameterNumber":2,"parameterNumberName":"U-component_of_WINDS"},"data":[0,0,0,0,0,0,0,0,0,0,0,0,0,0,0,0,0,0,0,0,0,0,0,0,0,0,0,0,0,0,0,0,0,0,0,0,0,0,0,0,0,0,0,0,0,0,0,0,0,0,0,0,0,0,0,0,0,0,0.1205,0.1206,0,0.1279,0.128,0.1281,0.1336,0.1336,0.1336,0.1337,0.1414,0.1416,0.1417,0,0,0,0,0,0,0,0,0,0,0,0,0,0.1112,0.1113,0.1205,0.1206,0.1207,0.1279,0.128,0.1281,0.1335,0.1336,0.1337,0.1337,0.1414,0.1416,0.1418,0,0,0,0,0,0,0,0,0,0,0,0,0,0.1166,0.1113,0.1205,0.1243,0.1247,0.1279,0.128,0.1281,0.1335,0.1336,0.1337,0.1337,0.1413,0.1415,0.1418,0.1419,0,0,0.1425,0.1426,0,0,0,0,0,0,0,0,0.1162,0.1169,0.1236,0.124,0.1245,0.1299,0.1276,0.1328,0.1335,0.1302,0.1337,0.1338,0.1375,0.1381,0.1393,0.1423,0.1426,0.1426,0.1427,0.1428,0.1429,0,0,0,0,0,0,0,0.1159,0.1166,0.1234,0.1237,0.1242,0.1256,0.1265,0.1286,0.1334,0.1305,0.1309,0.1317,0.1378,0.1391,0.1396,0.1427,0.1426,0.1428,0.1429,0.143,0.1461,0.1461,0,0,0,0,0,0,0.1149,0.1163,0.1232,0.1237,0.1204,0.1257,0.1267,0.1281,0.1334,0.1342,0.1316,0.1319,0.1386,0.1393,0.1399,0.1403,0.1428,0.143,0.1432,0.1462,0.1461,0.146,0,0,0,0,0,0,0.1147,0.1154,0.1229,0.1201,0.1211,0.1258,0.1273,0.1282,0.1295,0.1342,0.1351,0.132,0.1387,0.1395,0.1413,0.1407,0.1431,0.1434,0.1463,0.1462,0.1461,0.1413,0,0,0,0,0,0,0.1144,0.1153,0.1154,0.12,0.1213,0.1242,0.1273,0.1283,0.1299,0.1303,0.1349,0.1357,0.1388,0.141,0.1416,0.1411,0.1436,0.1463,0.1462,0.1461,0.1415,0.141,0.1406,0,0,0,0,0,0.114,0.1138,0.1154,0.1162,0.1214,0.1242,0.1249,0.1284,0.1298,0.1299,0.133,0.1356,0.1407,0.1411,0.1419,0.1414,0.1464,0.1462,0.1461,0.1417,0.1411,0.1406,0,0,0,0,0,0,0.1089,0.1144,0.1163,0.1175,0.1203,0.1251,0.1253,0.1277,0.1302,0.1305,0.1349,0.1359,0.1373,0.1395,0.1399,0.1418,0.1439,0.1439,0.1402,0.1397,0.1393,0.1387,0.1438,0,0,0,0,0,0.108,0.1097,0.1144,0.115,0.1164,0.1206,0.1219,0.1244,0.1275,0.1288,0.132,0.1349,0.1372,0.1386,0.141,0.1419,0.143,0.1419,0.1415,0.1411,0.141,0.1417,0.1413,0.1456,0.1456,0.1456,0,0,0.106,0.1092,0.11,0.1141,0.1166,0.1183,0.1215,0.1232,0.1246,0.129,0.1309,0.1334,0.137,0.1384,0.1391,0.1403,0.1401,0.1409,0.1406,0.1407,0.1415,0.1411,0.1408,0.1455,0.1455,0.1455,0,0,0.1032,0.1058,0.1066,0.109,0.1127,0.1155,0.1157,0.1201,0.1219,0.1239,0.1273,0.129,0.1328,0.1352,0.1369,0.1351,0.1376,0.1358,0.1334,0.134,0.1337,0.1334,0.1327,0.1324,0.1357,0.1357,0.1357,0,0.1003,0.103,0.1067,0.1082,0.1099,0.114,0.1149,0.1171,0.1214,0.1225,0.1237,0.1286,0.1313,0.1333,0.1329,0.1341,0.1345,0.1352,0.1334,0.1332,0.133,0.1324,0.1321,0.1354,0.1355,0.1355,0.1355,0,0.0992,0.101,0.1012,0.1052,0.1069,0.1081,0.1121,0.1135,0.1158,0.1185,0.1205,0.1239,0.127,0.1277,0.13,0.13,0.1306,0.1326,0.1347,0.1322,0.1318,0.1316,0.1351,0.1352,0.1352,0.1353,0,0,0.0934,0.0995,0.0995,0.1013,0.1057,0.1072,0.1086,0.1116,0.1127,0.1155,0.1168,0.1199,0.1218,0.1237,0.1264,0.1269,0.1252,0.1288,0.129,0.128,0.1255,0.1239,0.1236,0.1269,0.1269,0.1269,0.1251,0,0.0913,0.094,0.0974,0.0989,0.1006,0.1046,0.1058,0.1086,0.1112,0.1131,0.1159,0.1181,0.1203,0.1215,0.1222,0.1253,0.1248,0.1255,0.1282,0.1282,0.1271,0.1234,0.1218,0.12,0.125,0.125,0.1249,0,0.0892,0.0918,0.0934,0.0977,0.0985,0.0995,0.1026,0.1043,0.1077,0.1095,0.1117,0.1145,0.1162,0.1182,0.1206,0.121,0.1223,0.124,0.124,0.1244,0.1264,0.1236,0.1195,0.1192,0.1247,0.1247,0.1247,0,0.0848,0.0887,0.0902,0.0917,0.0967,0.0973,0.0994,0.1028,0.1044,0.1071,0.1082,0.111,0.1126,0.1147,0.1183,0.1194,0.1203,0.1226,0.1219,0.1218,0.1219,0.1219,0.1179,0.1228,0.1228,0.1228,0.1228,0,0.0821,0.083,0.0883,0.0892,0.0903,0.0943,0.0953,0.0978,0.1007,0.1022,0.1058,0.1072,0.1118,0.1137,0.1165,0.1181,0.1188,0.1203,0.121,0.12,0.1198,0.1209,0.1211,0.1227,0.1227,0.1227,0.1228,0,0.0774,0.081,0.0829,0.0874,0.0886,0.0892,0.0931,0.0942,0.097,0.0988,0.0995,0.1038,0.1063,0.11,0.1136,0.1155,0.1166,0.1178,0.1154,0.1159,0.115,0.115,0.1116,0.1114,0.1164,0.1163,0.1163,0,0.0754,0.0762,0.0808,0.082,0.084,0.086,0.0876,0.0916,0.0931,0.097,0.0976,0.1003,0.1026,0.1063,0.1098,0.1125,0.1139,0.1125,0.1143,0.1132,0.1138,0.1137,0.1138,0.1121,0.112,0.1119,0.1119,0,0.0716,0.0733,0.0755,0.0783,0.0801,0.0825,0.0851,0.0859,0.0905,0.0921,0.0946,0.0964,0.1,0.1026,0.1058,0.1081,0.1107,0.1113,0.1113,0.1102,0.1088,0.1095,0.1142,0.1113,0.1114,0.1114,0.1115,0.1115,0.0682,0.069,0.0724,0.0747,0.0771,0.0794,0.0806,0.0835,0.0856,0.0888,0.0911,0.0934,0.0968,0.1014,0.1035,0.1054,0.1066,0.1065,0.1065,0.1065,0.1061,0.1084,0.106,0.106,0.1061,0.1061,0.1061,0,0.0645,0.0668,0.0689,0.0724,0.0742,0.0765,0.0795,0.0809,0.0829,0.0858,0.088,0.0909,0.0934,0.0971,0.1,0.1008,0.1021,0.1014,0.1014,0.1019,0.1049,0.1046,0.1004,0.1004,0.1004,0.1004,0.1004,0.1004,0.0628,0.0643,0.0664,0.0692,0.0716,0.0738,0.0754,0.0775,0.0799,0.0829,0.085,0.0874,0.0906,0.0937,0.0962,0.0972,0.0981,0.097,0.0984,0.1012,0.1017,0.1022,0.1019,0.0972,0.0972,0.0953,0.0953,0.0953]},{"header":{"parameterUnit":"m.s-1","parameterCategory":1,"la1":30.2991,"la2":30.254,"lo1":-89.0895,"lo2":-89.0444,"dy":0.0017,"dx":0.0017,"nx":28,"ny":28,"refTime":"2025-04-08T03:00:00:Z","depth":0,"parameterNumber":3,"parameterNumberName":"V-component_of_WINDS"},"data":[0,0,0,0,0,0,0,0,0,0,0,0,0,0,0,0,0,0,0,0,0,0,0,0,0,0,0,0,0,0,0,0,0,0,0,0,0,0,0,0,0,0,0,0,0,0,0,0,0,0,0,0,0,0,0,0,0,0,-0.7342,-0.7342,0,-0.7339,-0.7339,-0.7339,-0.7325,-0.7324,-0.7324,-0.7324,-0.7321,-0.7321,-0.7321,0,0,0,0,0,0,0,0,0,0,0,0,0,-0.7337,-0.7337,-0.7342,-0.7342,-0.7342,-0.7339,-0.7339,-0.7339,-0.7325,-0.7324,-0.7324,-0.7323,-0.7321,-0.7321,-0.7321,0,0,0,0,0,0,0,0,0,0,0,0,0,-0.7337,-0.7337,-0.7342,-0.7335,-0.7334,-0.7339,-0.7339,-0.7339,-0.7325,-0.7324,-0.7324,-0.7323,-0.7321,-0.7321,-0.7321,-0.7334,0,0,-0.7323,-0.7323,0,0,0,0,0,0,0,0,-0.7337,-0.7338,-0.7336,-0.7335,-0.7334,-0.7332,-0.7336,-0.7337,-0.7325,-0.7328,-0.7324,-0.7323,-0.7325,-0.7325,-0.7326,-0.7334,-0.7334,-0.7323,-0.7323,-0.7323,-0.7323,0,0,0,0,0,0,0,-0.7337,-0.7338,-0.7341,-0.7336,-0.7335,-0.7332,-0.7331,-0.7337,-0.733,-0.7328,-0.7327,-0.7327,-0.7324,-0.7325,-0.7325,-0.7334,-0.7323,-0.7323,-0.7323,-0.7323,-0.7355,-0.7356,0,0,0,0,0,0,-0.7338,-0.7338,-0.7341,-0.7341,-0.7335,-0.7332,-0.7332,-0.7333,-0.7329,-0.7328,-0.7327,-0.7326,-0.7325,-0.7325,-0.7325,-0.7342,-0.7323,-0.7323,-0.7324,-0.7354,-0.7355,-0.7356,0,0,0,0,0,0,-0.7338,-0.7339,-0.7341,-0.7339,-0.7339,-0.7333,-0.7335,-0.7333,-0.7334,-0.7329,-0.7328,-0.7329,-0.7324,-0.7325,-0.7333,-0.7341,-0.7324,-0.7324,-0.7354,-0.7355,-0.7356,-0.7373,0,0,0,0,0,0,-0.7338,-0.7339,-0.7343,-0.7339,-0.7339,-0.7348,-0.7335,-0.7334,-0.7335,-0.7333,-0.733,-0.7329,-0.7324,-0.7332,-0.7333,-0.7341,-0.7324,-0.7353,-0.7354,-0.7355,-0.7372,-0.7375,-0.7377,0,0,0,0,0,-0.7338,-0.7348,-0.7343,-0.7344,-0.7344,-0.7349,-0.7349,-0.7342,-0.7335,-0.734,-0.7337,-0.7329,-0.734,-0.7333,-0.7334,-0.7343,-0.7352,-0.7354,-0.7355,-0.7371,-0.7374,-0.7377,0,0,0,0,0,0,-0.7352,-0.7347,-0.7342,-0.735,-0.735,-0.7346,-0.7352,-0.7346,-0.7347,-0.7346,-0.7338,-0.7337,-0.7347,-0.7345,-0.7338,-0.7356,-0.7345,-0.7347,-0.7357,-0.736,-0.7362,-0.7363,-0.7324,0,0,0,0,0,-0.7356,-0.736,-0.7355,-0.7363,-0.7363,-0.7358,-0.7359,-0.7354,-0.7354,-0.7353,-0.7351,-0.7351,-0.7354,-0.7357,-0.7359,-0.7371,-0.7372,-0.7378,-0.7381,-0.7383,-0.7384,-0.7393,-0.7396,-0.736,-0.736,-0.736,0,0,-0.7364,-0.7362,-0.7365,-0.7366,-0.7365,-0.737,-0.7357,-0.7362,-0.7366,-0.7354,-0.7362,-0.736,-0.736,-0.737,-0.7375,-0.7369,-0.7394,-0.7384,-0.7386,-0.7387,-0.7395,-0.7398,-0.7401,-0.7361,-0.7361,-0.7361,0,0,-0.7382,-0.738,-0.7388,-0.7388,-0.7387,-0.7383,-0.7385,-0.7383,-0.7381,-0.7389,-0.7381,-0.7385,-0.7391,-0.7392,-0.7393,-0.7414,-0.7407,-0.7415,-0.7428,-0.7437,-0.744,-0.7442,-0.7451,-0.7454,-0.7416,-0.7416,-0.7416,0,-0.7393,-0.7399,-0.7392,-0.7399,-0.74,-0.739,-0.7399,-0.7399,-0.7399,-0.7401,-0.7394,-0.7403,-0.7402,-0.7413,-0.7419,-0.7419,-0.7422,-0.7415,-0.744,-0.7442,-0.7444,-0.7453,-0.7456,-0.7417,-0.7417,-0.7417,-0.7417,0,-0.7413,-0.7418,-0.7424,-0.7426,-0.7428,-0.7435,-0.743,-0.7433,-0.7429,-0.7427,-0.7436,-0.7434,-0.7437,-0.744,-0.7435,-0.7451,-0.7448,-0.7441,-0.743,-0.7449,-0.7457,-0.746,-0.7419,-0.7418,-0.7418,-0.7418,0,0,-0.7439,-0.7438,-0.744,-0.7442,-0.7441,-0.7445,-0.7453,-0.7456,-0.746,-0.7461,-0.7468,-0.7474,-0.7468,-0.7469,-0.7465,-0.7472,-0.7491,-0.7464,-0.7464,-0.7471,-0.7511,-0.7518,-0.7522,-0.7487,-0.7487,-0.7488,-0.7512,0,-0.7457,-0.747,-0.7465,-0.7479,-0.7484,-0.7476,-0.7483,-0.7484,-0.7482,-0.7487,-0.7485,-0.749,-0.7481,-0.7482,-0.7489,-0.7487,-0.7499,-0.7485,-0.7495,-0.7495,-0.7496,-0.7526,-0.7532,-0.7555,-0.7515,-0.7515,-0.7516,0,-0.748,-0.7483,-0.7498,-0.7498,-0.75,-0.7507,-0.7511,-0.7515,-0.7517,-0.7515,-0.7518,-0.7513,-0.7521,-0.751,-0.7523,-0.7514,-0.7517,-0.7517,-0.7518,-0.752,-0.7507,-0.7529,-0.7562,-0.7566,-0.752,-0.752,-0.752,0,-0.75,-0.7507,-0.7517,-0.7519,-0.7519,-0.7524,-0.7525,-0.7526,-0.7529,-0.7533,-0.7535,-0.754,-0.7543,-0.7547,-0.7543,-0.7535,-0.7557,-0.7545,-0.7558,-0.7558,-0.7563,-0.7563,-0.7598,-0.7563,-0.7563,-0.7563,-0.7563,0,-0.7521,-0.7531,-0.7526,-0.7533,-0.7544,-0.7539,-0.755,-0.7549,-0.7551,-0.7558,-0.7551,-0.7558,-0.7552,-0.7559,-0.7556,-0.7568,-0.7569,-0.7569,-0.7568,-0.757,-0.7571,-0.7573,-0.7572,-0.7564,-0.7564,-0.7564,-0.7564,0,-0.7545,-0.7542,-0.7553,-0.7553,-0.7554,-0.7562,-0.7563,-0.7569,-0.7568,-0.7577,-0.7579,-0.7577,-0.7584,-0.7581,-0.7589,-0.7587,-0.7603,-0.76,-0.7603,-0.7603,-0.7616,-0.7615,-0.7655,-0.7661,-0.7621,-0.7621,-0.7621,0,-0.7559,-0.7566,-0.7568,-0.7573,-0.7574,-0.7581,-0.7585,-0.7581,-0.7585,-0.7589,-0.7595,-0.7603,-0.7608,-0.7621,-0.7621,-0.7627,-0.7625,-0.7638,-0.7626,-0.7628,-0.7627,-0.7627,-0.7629,-0.7641,-0.7642,-0.7642,-0.7642,0,-0.7586,-0.7585,-0.759,-0.7597,-0.7602,-0.7606,-0.761,-0.7614,-0.761,-0.7616,-0.7624,-0.7629,-0.7638,-0.7646,-0.7652,-0.7653,-0.7648,-0.7646,-0.765,-0.7652,-0.7655,-0.7656,-0.7612,-0.7645,-0.7645,-0.7645,-0.7645,-0.7645,-0.7606,-0.7613,-0.7616,-0.7624,-0.7627,-0.7631,-0.7638,-0.7638,-0.7645,-0.7652,-0.7649,-0.766,-0.7663,-0.7671,-0.7674,-0.7682,-0.7677,-0.7681,-0.7683,-0.7684,-0.7687,-0.7653,-0.7683,-0.7683,-0.7683,-0.7683,-0.7683,0,-0.7634,-0.7636,-0.7643,-0.7649,-0.7656,-0.765,-0.7655,-0.7661,-0.767,-0.7674,-0.768,-0.7691,-0.7699,-0.77,-0.7708,-0.7715,-0.7713,-0.7717,-0.7717,-0.7718,-0.769,-0.7687,-0.7719,-0.7719,-0.7719,-0.7719,-0.7719,-0.7719,-0.7649,-0.7661,-0.7661,-0.7676,-0.7678,-0.7688,-0.7692,-0.7697,-0.77,-0.7712,-0.772,-0.772,-0.7724,-0.7732,-0.774,-0.774,-0.7744,-0.775,-0.775,-0.7723,-0.772,-0.7716,-0.7714,-0.7751,-0.7751,-0.7777,-0.7777,-0.7778]}]]